Location: Santa Teresa Spring
(37.2333°N, 121.7000°W)
Time: 03:27:04
(UTC-07:00)

ISS - Visible Passes

Search period start: 06 May 2015 00:00
Search period end: 16 May 2015 00:00
Orbit: 394 x 401 km, 51.6° (Epoch: 05 May)

Date Brightness Start Highest point End Pass type
(mag) Time Alt. Az. Time Alt. Az. Time Alt. Az.
11 May -2.0 05:26:36 10° SSW 05:29:32 33° SE 05:32:30 10° ENE visible
12 May -0.9 04:33:36 11° SSE 04:35:14 16° SE 04:37:18 10° E visible
13 May -3.4 05:13:57 12° SW 05:16:49 87° SE 05:20:04 10° NE visible
14 May -2.4 04:21:40 31° SSE 04:22:24 36° SE 04:25:25 10° ENE visible
15 May -0.7 03:29:18 14° ESE 03:29:18 14° ESE 03:30:15 10° E visible
15 May -2.5 05:01:48 15° WSW 05:04:09 39° NW 05:07:13 10° NE visible
